Bluefield, WV

9:38 AM EST on December 05, 2019 (GMT -0500)
Mercer County

Weather History for KBLF - July, 2019

Change the Weather History Date:

Tuesday, July 16, 2019

  Actual Average Record
Temperature  
Mean Temperature 74 °F 73 °F  
Max Temperature 82 °F 81 °F 96 °F (1988)
Min Temperature 65 °F 65 °F 44 °F (1926)
Degree Days  
Heating Degree Days 0 0  
Month to date heating degree days 0 0  
Since 1 June heating degree days 47 22  
Since 1 July heating degree days 0 0  
Cooling Degree Days 9 8  
Month to date cooling degree days 115 128  
Year to date cooling degree days 263 385  
Since 1 June cooling degree days 184 294  
Growing Degree Days 24 (Base 50)    
Moisture  
Dew Point 64 °F    
Average Humidity 76    
Maximum Humidity 93    
Minimum Humidity 58    
Precipitation  
Precipitation 0.00 in 0.14 in 0.86 in (1981)
Month to date precipitation 1.15 2.21  
Year to date precipitation 23.47 23.17  
Snow  
Snow 0.00 in - - ()
Month to date snowfall 0.0  
Since 1 June snowfall 0.0  
Since 1 July snowfall 0.0  
Snow Depth 0.00 in    
Sea Level Pressure  
Sea Level Pressure 30.12 in    
Wind  
Wind Speed 4 mph (SW)    
Max Wind Speed 8 mph    
Max Gust Speed 11 mph    
Visibility 10 miles    
Events      
T = Trace of Precipitation, MM = Missing Value Source: NWS Daily Summary

Daily Weather History Graph

Daily Weather History Graph

Search for Another Location

Airport or City:

Astronomy

Jul. 16, 2019 Rise Set
Actual Time 6:16 AM EDT 8:44 PM EDT
Civil Twilight 5:46 AM EDT 9:14 PM EDT
Nautical Twilight 5:09 AM EDT 9:51 PM EDT
Astronomical Twilight 4:28 AM EDT 10:32 PM EDT
Moon 8:49 PM EDT (7/16) 5:54 AM EDT (7/16)
Length of Visible Light 15h 28m
Length of Day
14h 27m
Full, 100% of the Moon is Illuminated
Jul 16
Full
Jul 16
Full
Jul 24
Last Quarter
Jul 31
New
Aug 7
First Quarter

Hourly Weather History & Observations

Time (EDT) Temp. Heat Index Dew Point Humidity Pressure Visibility Wind Dir Wind Speed Gust Speed Precip Events Conditions
12:52 AM 66.0 °F - 63.0 °F 90% 30.14 in 10.0 mi WSW 4.6 mph - N/A   Clear
1:52 AM 66.9 °F - 64.0 °F 90% 30.12 in 10.0 mi WSW 3.5 mph - N/A   Clear
2:52 AM 66.0 °F - 64.0 °F 93% 30.12 in 10.0 mi WSW 3.5 mph - N/A   Clear
3:52 AM 66.0 °F - 63.0 °F 90% 30.11 in 9.0 mi WSW 4.6 mph - N/A   Clear
4:52 AM 66.0 °F - 64.0 °F 93% 30.13 in 4.0 mi Calm Calm - N/A   Clear
5:52 AM 66.9 °F - 64.0 °F 90% 30.16 in 10.0 mi Calm Calm - N/A   Clear
6:52 AM 66.0 °F - 64.9 °F 96% 30.16 in 7.0 mi Calm Calm - N/A   Clear
7:52 AM 69.1 °F - 66.0 °F 90% 30.17 in 10.0 mi Calm Calm - N/A   Clear
8:52 AM 73.0 °F - 66.0 °F 79% 30.18 in 10.0 mi SW 3.5 mph - N/A   Clear
9:52 AM 73.9 °F - 66.0 °F 76% 30.17 in 10.0 mi West 4.6 mph - N/A   Clear
10:52 AM 75.0 °F - 64.9 °F 71% 30.17 in 10.0 mi West 4.6 mph - N/A   Clear
11:52 AM 75.9 °F - 66.0 °F 71% 30.17 in 10.0 mi WSW 4.6 mph - N/A   Scattered Clouds
12:52 PM 78.1 °F - 64.0 °F 62% 30.16 in 10.0 mi SW 6.9 mph - N/A   Clear
1:52 PM 78.1 °F - 64.0 °F 62% 30.15 in 10.0 mi WSW 5.8 mph - N/A   Clear
2:52 PM 80.1 °F 81.7 °F 64.0 °F 58% 30.13 in 10.0 mi WSW 5.8 mph - N/A   Clear
3:52 PM 80.1 °F 81.7 °F 64.0 °F 58% 30.11 in 10.0 mi SW 4.6 mph - N/A   Clear
4:52 PM 80.1 °F 81.9 °F 64.9 °F 60% 30.09 in 10.0 mi Calm Calm - N/A   Partly Cloudy
5:52 PM 81.0 °F 82.7 °F 64.9 °F 58% 30.06 in 10.0 mi SSE 4.6 mph - N/A   Mostly Cloudy
6:52 PM 80.1 °F 81.7 °F 64.0 °F 58% 30.07 in 10.0 mi West 6.9 mph - N/A   Partly Cloudy
7:52 PM 80.1 °F 81.9 °F 64.9 °F 60% 30.07 in 10.0 mi WSW 3.5 mph - N/A   Clear
8:52 PM 77.0 °F - 63.0 °F 62% 30.07 in 10.0 mi South 3.5 mph - N/A   Clear
9:52 PM 75.9 °F - 62.1 °F 62% 30.09 in 10.0 mi South 3.5 mph - N/A   Clear
10:52 PM 75.0 °F - 64.0 °F 69% 30.09 in 10.0 mi SSW 4.6 mph - N/A   Clear
11:52 PM 73.9 °F - 64.0 °F 71% 30.09 in 10.0 mi SSW 5.8 mph - N/A   Clear